• Em Portugal
  • Lista de países
  • Para 7 dias
  • Temperatura da água
  • Mapas de satélite
  • Mapa do tempo
  • Widgets de tempo
  • user-avatar
    Iniciar Sessão

    Previsão horária em Rusany

    Hoje, 23 Setembro, Domingo

    Tempo Temperatura Precipitação Vento Pressão Humidade
    00:00 +8°C° 0.3 mm 4 m/s 741 mmHg 93%
    01:00 +8°C° 0.3 mm 4 m/s 741 mmHg 93%
    02:00 +9°C° 0 mm 3 m/s 741 mmHg 94%
    03:00 +8°C° 0 mm 3 m/s 741 mmHg 95%
    04:00 +8°C° 0 mm 3 m/s 741 mmHg 95%
    05:00 +7°C° 0 mm 3 m/s 741 mmHg 96%
    06:00 +7°C° 0 mm 4 m/s 741 mmHg 94%
    07:00 +7°C° 0 mm 4 m/s 741 mmHg 91%
    08:00 +8°C° 0 mm 4 m/s 740 mmHg 88%
    09:00 +9°C° 0 mm 5 m/s 740 mmHg 81%
    10:00 +12°C° 0 mm 5 m/s 740 mmHg 73%
    11:00 +13°C° 0 mm 6 m/s 740 mmHg 66%
    12:00 +13°C° 0.1 mm 6 m/s 740 mmHg 64%
    13:00 +14°C° 0.1 mm 6 m/s 740 mmHg 62%
    14:00 +14°C° 0.1 mm 6 m/s 740 mmHg 59%
    15:00 +14°C° 0.2 mm 5 m/s 740 mmHg 63%
    16:00 +13°C° 0.2 mm 5 m/s 740 mmHg 67%
    17:00 +12°C° 0.2 mm 4 m/s 740 mmHg 71%
    18:00 +11°C° 0 mm 4 m/s 740 mmHg 74%
    19:00 +10°C° 0 mm 4 m/s 740 mmHg 78%
    20:00 +8°C° 0 mm 4 m/s 740 mmHg 82%
    21:00 +8°C° 0 mm 4 m/s 740 mmHg 84%
    22:00 +8°C° 0 mm 3 m/s 740 mmHg 86%
    23:00 +8°C° 0 mm 3 m/s 740 mmHg 88%

    Amanhã, 24 Setembro, Segunda-feira

    Tempo Temperatura Precipitação Vento Pressão Humidade
    00:00 +8°C° 0.1 mm 3 m/s 739 mmHg 90%
    01:00 +8°C° 0.1 mm 3 m/s 739 mmHg 91%
    02:00 +8°C° 0.1 mm 3 m/s 738 mmHg 93%
    03:00 +8°C° 0.7 mm 3 m/s 738 mmHg 94%
    04:00 +8°C° 0.7 mm 3 m/s 737 mmHg 94%
    05:00 +8°C° 0.7 mm 3 m/s 737 mmHg 95%
    06:00 +8°C° 1.5 mm 3 m/s 736 mmHg 95%
    07:00 +8°C° 1.5 mm 4 m/s 736 mmHg 94%
    08:00 +8°C° 1.5 mm 4 m/s 735 mmHg 94%
    09:00 +8°C° 1.9 mm 5 m/s 734 mmHg 94%
    10:00 +8°C° 1.9 mm 5 m/s 733 mmHg 93%
    11:00 +8°C° 1.9 mm 5 m/s 732 mmHg 93%
    12:00 +8°C° 3.2 mm 5 m/s 731 mmHg 94%
    13:00 +8°C° 3.2 mm 5 m/s 730 mmHg 95%
    14:00 +8°C° 3.2 mm 4 m/s 729 mmHg 96%
    15:00 +8°C° 3.6 mm 5 m/s 728 mmHg 95%
    16:00 +8°C° 3.6 mm 6 m/s 728 mmHg 95%
    17:00 +8°C° 3.6 mm 7 m/s 727 mmHg 94%
    18:00 +6°C° 2.4 mm 8 m/s 728 mmHg 93%
    19:00 +6°C° 2.4 mm 9 m/s 728 mmHg 91%
    20:00 +4°C° 2.4 mm 11 m/s 728 mmHg 90%
    21:00 +5°C° 0.9 mm 10 m/s 729 mmHg 89%
    22:00 +5°C° 0.9 mm 10 m/s 730 mmHg 89%
    23:00 +5°C° 0.9 mm 9 m/s 731 mmHg 88%

    Depois de amanhã, 25 Setembro, Terça-feira

    Tempo Temperatura Precipitação Vento Pressão Humidade
    00:00 +5°C° 0.3 mm 9 m/s 732 mmHg 88%
    01:00 +5°C° 0.3 mm 9 m/s 733 mmHg 87%
    02:00 +5°C° 0.3 mm 9 m/s 734 mmHg 87%
    03:00 +5°C° 0.1 mm 9 m/s 735 mmHg 87%
    04:00 +4°C° 0.1 mm 8 m/s 735 mmHg 87%
    05:00 +2°C° 0.1 mm 8 m/s 736 mmHg 87%
    06:00 +2°C° 0 mm 8 m/s 737 mmHg 86%
    07:00 +2°C° 0 mm 8 m/s 738 mmHg 84%
    08:00 +2°C° 0 mm 8 m/s 739 mmHg 83%
    09:00 +4°C° 0 mm 8 m/s 739 mmHg 80%
    10:00 +4°C° 0 mm 8 m/s 740 mmHg 77%
    11:00 +5°C° 0 mm 8 m/s 741 mmHg 74%
    12:00 +5°C° 0 mm 8 m/s 741 mmHg 72%
    13:00 +5°C° 0 mm 7 m/s 742 mmHg 69%
    14:00 +6°C° 0 mm 7 m/s 742 mmHg 66%
    15:00 +5°C° 0.1 mm 7 m/s 743 mmHg 68%
    16:00 +5°C° 0.1 mm 6 m/s 743 mmHg 69%
    17:00 +5°C° 0.1 mm 6 m/s 744 mmHg 71%
    18:00 +5°C° 0 mm 5 m/s 745 mmHg 72%
    19:00 +3°C° 0 mm 5 m/s 745 mmHg 73%
    20:00 +2°C° 0 mm 5 m/s 746 mmHg 74%
    21:00 +2°C° 0 mm 5 m/s 747 mmHg 74%
    22:00 +2°C° 0 mm 5 m/s 747 mmHg 74%
    23:00 +1°C° 0 mm 5 m/s 748 mmHg 74%

    26 Setembro, Quarta-feira

    Tempo Temperatura Precipitação Vento Pressão Humidade
    00:00 +1°C° 0 mm 5 m/s 748 mmHg 74%
    01:00 +1°C° 0 mm 5 m/s 749 mmHg 74%
    02:00 0°C° 0 mm 4 m/s 749 mmHg 75%
    03:00 0°C° 0 mm 4 m/s 750 mmHg 78%
    04:00 0°C° 0 mm 4 m/s 750 mmHg 81%
    05:00 0°C° 0 mm 4 m/s 751 mmHg 84%
    06:00 +1°C° 0 mm 4 m/s 751 mmHg 83%
    07:00 +3°C° 0 mm 4 m/s 751 mmHg 81%
    08:00 +2°C° 0 mm 5 m/s 752 mmHg 79%
    09:00 +5°C° 0 mm 5 m/s 752 mmHg 73%
    10:00 +7°C° 0 mm 5 m/s 752 mmHg 67%
    11:00 +8°C° 0 mm 5 m/s 752 mmHg 61%
    12:00 +9°C° 0 mm 5 m/s 751 mmHg 59%
    13:00 +9°C° 0 mm 5 m/s 751 mmHg 57%
    14:00 +10°C° 0 mm 6 m/s 750 mmHg 55%
    15:00 +9°C° 0 mm 5 m/s 750 mmHg 60%
    16:00 +9°C° 0 mm 5 m/s 750 mmHg 65%
    17:00 +8°C° 0 mm 5 m/s 749 mmHg 70%
    18:00 +7°C° 0.1 mm 5 m/s 749 mmHg 72%
    19:00 +7°C° 0.1 mm 6 m/s 748 mmHg 73%
    20:00 +5°C° 0.1 mm 7 m/s 748 mmHg 74%
    21:00 +5°C° 0.3 mm 7 m/s 747 mmHg 77%
    22:00 +5°C° 0.3 mm 8 m/s 746 mmHg 80%
    23:00 +5°C° 0.3 mm 8 m/s 745 mmHg 83%

    27 Setembro, Quinta-feira

    Tempo Temperatura Precipitação Vento Pressão Humidade
    00:00 +5°C° 1.1 mm 8 m/s 744 mmHg 84%
    01:00 +5°C° 1.1 mm 9 m/s 743 mmHg 86%
    02:00 +5°C° 1.1 mm 9 m/s 742 mmHg 88%
    03:00 +5°C° 1 mm 9 m/s 741 mmHg 88%
    04:00 +5°C° 1 mm 9 m/s 740 mmHg 89%
    05:00 +5°C° 1 mm 9 m/s 739 mmHg 90%
    06:00 +6°C° 0.5 mm 9 m/s 739 mmHg 90%
    07:00 +6°C° 0.5 mm 8 m/s 739 mmHg 90%
    08:00 +7°C° 0.5 mm 8 m/s 739 mmHg 90%
    09:00 +8°C° 0.5 mm 7 m/s 739 mmHg 91%
    10:00 +9°C° 0.5 mm 7 m/s 739 mmHg 91%
    11:00 +10°C° 0.5 mm 6 m/s 740 mmHg 91%
    12:00 +10°C° 0.1 mm 6 m/s 740 mmHg 90%
    13:00 +12°C° 0.1 mm 5 m/s 740 mmHg 88%
    14:00 +12°C° 0.1 mm 5 m/s 740 mmHg 87%
    15:00 +12°C° 0.1 mm 5 m/s 740 mmHg 87%
    16:00 +12°C° 0.1 mm 4 m/s 740 mmHg 88%
    17:00 +12°C° 0.1 mm 4 m/s 740 mmHg 88%
    18:00 +12°C° 0.1 mm 4 m/s 740 mmHg 89%
    19:00 +12°C° 0.1 mm 4 m/s 740 mmHg 90%
    20:00 +11°C° 0.1 mm 4 m/s 741 mmHg 92%
    21:00 +10°C° 0.2 mm 5 m/s 740 mmHg 92%
    22:00 +10°C° 0.2 mm 5 m/s 740 mmHg 92%
    23:00 +10°C° 0.2 mm 6 m/s 740 mmHg 92%

    28 Setembro, Sexta-feira

    Tempo Temperatura Precipitação Vento Pressão Humidade
    00:00 +10°C° 0 mm 6 m/s 740 mmHg 93%
    01:00 +10°C° 0 mm 5 m/s 740 mmHg 94%
    02:00 +10°C° 0 mm 5 m/s 740 mmHg 95%
    03:00 +10°C° 0 mm 6 m/s 739 mmHg 94%
    04:00 +10°C° 0 mm 6 m/s 739 mmHg 93%
    05:00 +11°C° 0 mm 7 m/s 738 mmHg 92%
    06:00 +11°C° 0.1 mm 7 m/s 738 mmHg 91%
    07:00 +11°C° 0.1 mm 8 m/s 737 mmHg 89%
    08:00 +12°C° 0.1 mm 9 m/s 737 mmHg 88%
    09:00 +12°C° 0.1 mm 9 m/s 737 mmHg 86%
    10:00 +13°C° 0.1 mm 9 m/s 737 mmHg 85%
    11:00 +14°C° 0.1 mm 10 m/s 737 mmHg 83%
    12:00 +13°C° 0.7 mm 9 m/s 737 mmHg 82%
    13:00 +12°C° 0.7 mm 9 m/s 738 mmHg 82%
    14:00 +12°C° 0.7 mm 8 m/s 738 mmHg 81%
    15:00 +11°C° 0.1 mm 7 m/s 739 mmHg 81%
    16:00 +10°C° 0.1 mm 5 m/s 740 mmHg 81%
    17:00 +10°C° 0.1 mm 4 m/s 740 mmHg 81%
    18:00 +9°C° 0 mm 3 m/s 741 mmHg 84%
    19:00 +8°C° 0 mm 3 m/s 742 mmHg 87%
    20:00 +8°C° 0 mm 3 m/s 742 mmHg 91%
    21:00 +7°C° 0 mm 3 m/s 743 mmHg 91%
    22:00 +7°C° 0 mm 3 m/s 744 mmHg 91%
    23:00 +6°C° 0 mm 4 m/s 744 mmHg 92%
    Mostrar mais